{"data":{"norad_id":67406,"epoch":"2026-09-19T14:49:05.235744Z","epoch_age_seconds":151709,"freshness":"FRESH","line1":"1 67406U 26005C   26262.61742171  .00009810  00000+0  36549-3 0  9990","line2":"2 67406  43.0015 222.9267 0001049 301.4800  58.5949 15.27583729 38356","mean_motion":15.27583729,"eccentricity":0.0001049,"inclination_deg":43.0015,"raan_deg":222.9267,"arg_perigee_deg":301.48,"mean_anomaly_deg":58.5949,"bstar":0.00036549,"rev_number":3835,"period_min":94.266518598144,"perigee_km":482.3181928447,"apogee_km":483.75766734503,"semimajor_km":6861.1749300949,"source":"CELESTRAK","updated_at":"2026-09-20T09:00:43.518767Z"}}